Home   Weather   Sioux Falls   Past weeks
Flag for USA

Past Weather in Sioux Falls, South Dakota, USA — Yesterday and Last 2 Weeks

Now
32 °F

Ice fog.


Feels Like: 25 °F
Forecast: 39 / 31 °F
Wind: 8 mph from West

Location: Foss Field

Current Time: Mar 20, 2019 at 1:22:47 am

Latest Report: Mar 20, 2019 at 12:56 am


Visibility: 1 mi

Pressure: 30.20 "Hg

Humidity: 100%

Dew Point: 32 °F

Location of Sioux FallsLocation

Past Weather in Sioux Falls — Graph

°F

Sioux Falls Temperature Yesterday

Maximum temperature yesterday: 52 °F (at 3:56 pm)
Minimum temperature yesterday: 32 °F (at 7:56 am)
Average temperature yesterday: 39 °F

High & Low Weather Summary for the Past Weeks

 TemperatureHumidityPressure
High52 °F (Mar 19, 3:56 pm)100% (Mar 12, 10:56 pm)30.48 "Hg (Mar 12, 10:56 pm)
Low3 °F (Mar 6, 12:56 am)45% (Mar 18, 5:56 pm)29.15 "Hg (Mar 14, 2:06 am)
Average29 °F82%30.04 "Hg
* Reported Mar 4 11:09 pm — Mar 20 12:18 am, Sioux Falls. Weather by CustomWeather, © 2019

Note: Actual official high and low records may vary slightly from our data, if they occured in-between our weather recording intervals... More about our weather records

Advertising

Sioux Falls Weather History for the Previous 24 Hours

Scroll right to see more
 ConditionsComfort  
Time TempWeatherWind HumidityBarometerVisibility
12:18 am
Wed, Mar 20
32 °FIce fog.7 mph96%30.19 "Hg1 mi
11:56 pm
Tue, Mar 19
32 °FIce fog.9 mph96%30.22 "Hg1 mi
10:56 pm32 °FIce fog.8 mph96%30.24 "Hg1 mi
10:27 pm32 °FIce fog.7 mph96%30.21 "Hg1 mi
9:56 pm33 °FFog.14 mph96%30.25 "Hg1 mi
8:56 pm33 °FFog.15 mph92%30.26 "Hg1 mi
8:33 pm34 °FFog.18 mph92%30.22 "Hg2 mi
7:56 pm38 °FPassing clouds.10 mph86%30.23 "Hg10 mi
6:56 pm43 °FSunny.10 mph74%30.21 "Hg10 mi
5:56 pm47 °FScattered clouds.13 mph71%30.21 "Hg10 mi
4:56 pm50 °FScattered clouds.12 mph61%30.22 "Hg10 mi
3:56 pm52 °FScattered clouds.8 mph47%30.21 "Hg10 mi
2:56 pm51 °FScattered clouds.5 mph56%30.22 "Hg10 mi
1:56 pm49 °FScattered clouds.7 mph59%30.24 "Hg10 mi
12:56 pm46 °FPassing clouds.5 mph66%30.25 "Hg10 mi
11:56 am44 °FPassing clouds.6 mph68%30.25 "Hg10 mi
10:56 am42 °FScattered clouds.7 mph68%30.25 "Hg10 mi
9:56 am40 °FScattered clouds.6 mph68%30.24 "Hg10 mi
8:56 am36 °FScattered clouds.6 mph75%30.23 "Hg10 mi
7:56 am32 °FPassing clouds.6 mph79%30.24 "Hg10 mi
7:19 am33 °FPassing clouds.7 mph75%30.20 "Hg10 mi
6:56 am33 °FPassing clouds.7 mph75%30.23 "Hg10 mi
5:56 am33 °FPassing clouds.3 mph75%30.23 "Hg10 mi
4:56 am34 °FPassing clouds.10 mph73%30.23 "Hg10 mi
3:56 am34 °FPassing clouds.8 mph73%30.23 "Hg10 mi
2:56 am35 °FClear.10 mph70%30.24 "Hg10 mi
1:56 am35 °FChilly.12 mph67%30.24 "Hg10 mi
Weather by CustomWeather, © 2019

See weather overview